Weather Service Report


067 
ASUS44 KLIX 250412
RWRLA 
LOUISIANA WEATHER ROUNDUP
NATIONAL WEATHER SERVICE NEW ORLEANS LA
1100 PM CDT SUN MAY 24 2015

NOTE: "FAIR" INDICATES FEW OR NO CLOUDS BELOW 12,000 FEET WITH NO
      SIGNIFICANT WEATHER AND/OR OBSTRUCTIONS TO VISIBILITY.
      SKY/WX - SKY CONDITION AND SIGNIFICANT WEATHER.
      TMP - AIR TEMPERATURE.    DP   - DEWPOINT TEMPERATURE.
      RH  - RELATIVE HUMIDITY.  PRES - PRESSURE.
      HX  - HEAT INDEX.         WCI  - WIND CHILL INDEX.

*  THESE STATIONS ARE NOT NWS OR FAA STATIONS AND ARE NOT UNDER
   NWS QUALITY CONTROL.

LAZ040-048-061>063-065-066-069-250500-
SOUTHEAST LOUISIANA
  
CITY           SKY/WX    TMP DP  RH WIND       PRES   REMARKS
N.O. AUDUBON   NOT AVBL                                               
N.O. INTL ARPT CLOUDY    75  69  81 SE7       30.05S THUNDER          
N.O. LAKEFRONT LGT RAIN  77  70  79 SW18G24   30.06F                  
SLIDELL        CLOUDY    81  76  84 S12       30.06R                  
BATON ROUGE    LGT RAIN  71  69  93 CALM      30.05R                  
BOOTHVILLE     MOCLDY    81  77  88 SE9       30.08R                  
BELLE CHASSE   TSTM      80  74  81 S13       30.04S                  
BOGALUSA*        N/A     79  71  77 S8        30.07S                  
GALLIANO*      CLOUDY    82  72  71 SE6       30.04F                  
NEW ROADS*     CLOUDY    71  70  97 SE5       30.04R                  
GONZALES*      MOCLDY    71  71 100 CALM      30.03F                  
HAMMOND*       TSTM      73  68  83 CALM      30.08R                  
HOUMA*         CLOUDY    76  73  92 S7        30.04R                  
PORT FOURCHON* CLEAR     81  72  74 SE13G21   30.05F                  

$$

LAZ041-044-053-054-250500-
SOUTHWEST LOUISIANA
  
CITY           SKY/WX    TMP DP  RH WIND       PRES   REMARKS
LAKE CHARLES   CLOUDY    73  71  93 SE3       29.99R                  
LAFAYETTE      CLOUDY    72  70  93 SE3       30.02R                  
PATTERSON      CLOUDY    72  70  94 SE3       30.05S                  
SALT POINT       N/A     74  73  97 CALM      30.02S                  
NEW IBERIA     CLOUDY    73  70  90 SE7       30.03R                  
CHENAULT AIRPK CLOUDY    72  70  96 SE6       29.99R                  

$$

LAZ027-028-250500-
CENTRAL LOUISIANA
  
CITY           SKY/WX    TMP DP  RH WIND       PRES   REMARKS
FORT POLK      NOT AVBL                                               
ALEXANDRIA INT CLOUDY    71  69  93 S6        29.99R                  
ALEXANDRIA     CLOUDY    73  70  90 SW6       30.01R                  

$$

LAZ001-002-250500-
NORTHWEST LOUISIANA
  
CITY           SKY/WX    TMP DP  RH WIND       PRES   REMARKS
SHREVEPORT     CLOUDY    71  69  93 SE7       29.96R                  
BARKSDALE AFB  CLOUDY    70  70 100 SE6       29.97R                  
DTN SHREVEPORT CLOUDY    71  68  90 SE7       29.97R                  

$$

LAZ014-016-250500-
NORTHEAST LOUISIANA
  
CITY           SKY/WX    TMP DP  RH WIND       PRES   REMARKS
MONROE         LGT RAIN  73  72  96 S6        30.01R                  
TALLULAH       LGT RAIN  72  69  90 S8        30.05R                  

$$



069 
ASUS44 KLIX 250412
RWRLIX
NEW ORLEANS REGIONAL WEATHER ROUNDUP
NATIONAL WEATHER SERVICE NEW ORLEANS LA
1100 PM CDT SUN MAY 24 2015

NOTE: "FAIR" INDICATES FEW OR NO CLOUDS BELOW 12,000 FEET WITH NO
      SIGNIFICANT WEATHER AND/OR OBSTRUCTIONS TO VISIBILITY.
      SKY/WX - SKY CONDITION AND SIGNIFICANT WEATHER.
      TMP - AIR TEMPERATURE.     DP    - DEWPOINT TEMPERATURE.
      RH  - RELATIVE HUMIDITY.   PRES  - PRESSURE.
      HI  - HEAT INDEX.          WCI   - WIND CHILL INDEX.

*  THESE STATIONS ARE NOT NWS OR FAA STATIONS AND ARE NOT UNDER
   NWS QUALITY CONTROL. 

LAZ038-040-048-061>063-065>067-069-250500-
SOUTHEAST LOUISIANA
  
CITY           SKY/WX    TMP DP  RH WIND       PRES   REMARKS
N.O. AUDUBON   NOT AVBL                                               
N.O. INTL ARPT CLOUDY    75  69  81 SE7       30.05S THUNDER          
N.O. LAKEFRONT LGT RAIN  77  70  79 SW18G24   30.06F                  
SLIDELL        CLOUDY    81  76  84 S12       30.06R                  
BATON ROUGE    LGT RAIN  71  69  93 CALM      30.05R                  
BOOTHVILLE     MOCLDY    81  77  88 SE9       30.08R                  
BELLE CHASSE   TSTM      80  74  81 S13       30.04S                  
BOGALUSA*        N/A     79  71  77 S8        30.07S                  
GALLIANO*      CLOUDY    82  72  71 SE6       30.04F                  
NEW ROADS*     CLOUDY    71  70  97 SE5       30.04R                  
GONZALES*      MOCLDY    71  71 100 CALM      30.03F                  
HAMMOND*       TSTM      73  68  83 CALM      30.08R                  
HOUMA*         CLOUDY    76  73  92 S7        30.04R                  
PORT FOURCHON* CLEAR     81  72  74 SE13G21   30.05F                  

$$

MSZ070-080>082-250500-
SOUTHERN MISSISSIPPI
  
CITY           SKY/WX    TMP DP  RH WIND       PRES   REMARKS
MCCOMB         RAIN      69  68  96 CALM      30.07F FOG              
GULFPORT       TSTM      76  64  66 S12G37    30.08R                  
BILOXI         LGT RAIN  77  73  88 S17G26    30.08R                  
PASCAGOULA     CLOUDY    80  74  81 SE14G24   30.10R                  

$$

COASTAL OBSERVATIONS
LAKE AND NEARSHORE STATIONS
  
STATION/POSITION TIME  TEMP    WIND        PRES    WAVE
                       AIR SEA DIR/SP/G            HT/PER
                 (UTC) (F)     (DEG/KT/KT) (MB)    (FT/S)
PASCAGOULA       0300   81     140/ 17/ 23 1018.6
WAVELAND YACHT   0300   81 82  160/ 21/ 24 1018.3
GRAND ISLE       0300   82 82  160/ 11/ 18 1017.7
SOUTHWEST PASS   0300   81 75  160/ 14/ 18 1018.7
NEW CANAL        0300   74 82  240/ 12/ 23 1017.6
SHELL BEACH      0300   81 83  140/ 15/ 19 1017.2

OFFSHORE STATIONS
  
STATION/POSITION TIME  TEMP    WIND        PRES    WAVE
                       AIR SEA DIR/SP/G            HT/PER
                 (UTC) (F)     (DEG/KT/KT) (MB)    (FT/S)
64 S DAUPHIN ISL 0350   80 78  130/ 19/ 23 1019.2    6/ 7

$$


Return to Home page


Western Regional Climate Center, wrcc@dri.edu